[ ตารางข้อมูล ] [ Min-Max ] [ วันนี้4 ] [ วันนี้2 ] [ เทียบ3วัน A ] [ เทียบ4วัน B ]   

วันนี้2   [ ◀ ช่วงเก่ากว่า ] [ ช่วงที่ 201 ] [ ช่วงใหม่กว่า ▶ ] [ ล่าสุด ]    [ 3 ชั่วโมง ] [ 6 ชั่วโมง ] [ 12 ชั่วโมง ] [ 24 ชั่วโมง ]   วันนี้2

อุณภูมิตู้ Knockdown4529  ราย 3 ชั่วโมง  ที่วัดได้ ในช่วงวันเวลา 09/04/2026 (20:02) ถึง 09/04/2026 (23:02) 
ความชื้นในตู้ Knockdown4529  ราย 3 ชั่วโมง  ที่วัดได้ ในช่วงวันเวลา 09/04/2026 (20:02) ถึง 09/04/2026 (23:02) 

 
DS18B20SHTC3 
IDDate d/m/Y & Timedata1
สูง
data2
ต่ำ
data3
นอก
temp
pcb
hum
pcb
Time
 10373  09/04/2026 22:59:59  27.9  27.9  26.0  27.9  70.8  22:59 
 10372  09/04/2026 22:55:17  27.9  27.9  26.0  27.7  70.8  22:55 
 10371  09/04/2026 22:50:35  27.9  28.0  25.9  27.7  70.9  22:50 
 10370  09/04/2026 22:45:53  27.9  28.0  25.7  27.8  70.9  22:45 
 10369  09/04/2026 22:41:11  27.9  28.1  25.6  27.9  70.9  22:41 
 10368  09/04/2026 22:36:29  28.0  28.1  25.5  27.8  70.9  22:36 
 10367  09/04/2026 22:31:47  28.0  28.1  25.6  28.0  71.0  22:31 
 10366  09/04/2026 22:27:05  28.0  28.1  25.7  28.1  71.0  22:27 
 10365  09/04/2026 22:22:23  28.1  28.1  25.6  28.0  70.9  22:22 
 10364  09/04/2026 22:17:42  28.1  28.1  25.5  28.1  71.0  22:17 
 10363  09/04/2026 22:13:00  28.1  28.2  25.5  28.1  70.8  22:13 
 10362  09/04/2026 22:08:18  28.1  28.2  25.7  27.9  70.8  22:08 
 10361  09/04/2026 22:03:36  28.1  28.2  25.9  28.1  70.8  22:03 
 10360  09/04/2026 21:58:51  28.2  28.2  25.9  28.1  70.8  21:58 
 10359  09/04/2026 21:54:08  28.2  28.2  25.9  28.1  70.8  21:54 
 10358  09/04/2026 21:49:26  28.2  28.3  25.9  28.1  70.8  21:49 
 10357  09/04/2026 21:44:44  28.2  28.3  26.0  28.1  70.9  21:44 
 10356  09/04/2026 21:40:04  28.2  28.3  26.1  28.2  70.8  21:40 
 10355  09/04/2026 21:35:22  28.2  28.4  26.1  28.2  70.8  21:35 
 10354  09/04/2026 21:30:39  28.3  28.4  26.2  28.1  70.9  21:30 
 10353  09/04/2026 21:25:57  28.3  28.4  26.1  28.1  70.7  21:25 
 10352  09/04/2026 21:21:15  28.4  28.4  26.0  28.2  70.8  21:21 
 10351  09/04/2026 21:16:34  28.4  28.4  25.9  28.2  70.8  21:16 
 10350  09/04/2026 21:11:51  28.4  28.4  26.0  28.1  70.8  21:11 

Data every 5 minute.


ใช้เวลาประมวลผล 0.00178 วินาที